Hourly Data Report for October 26, 2013

All times are specified in Local Standard Time (LST). Add 1 hour to adjust for Daylight Saving Time where and when it is observed.

CHARLOTTETOWN A
PRINCE EDWARD ISLAND

46°17'21.000" N
63°07'09.000" W
48.50 m
8300301
71706
YYG

Download Data

Hourly Data (October 2013)
Hourly Data Report for October 26, 2013
Temp Definition
°C
Dew Point Temp Definition
°C
Rel Hum Definition
%
Wind Dir Definition
10's deg

Wind Spd Definition
km/h
Visibility Definition
km
Stn Press Definition
kPa
Hmdx Definition


Wind Chill Definition


Weather Definition


TIME
00:00 Legend Double Dagger 4.9 1.0 76 27 10 24.1 100.61     LegendNANA
01:00 Legend Double Dagger 5.3 0.9 73 27 10 24.1 100.64     LegendNANA
02:00 Legend Double Dagger 4.2 0.9 79 26 9 24.1 100.68     Mostly Cloudy
03:00 Legend Double Dagger 3.5 0.4 80 26 9 24.1 100.67     LegendNANA
04:00 Legend Double Dagger 2.5 0.4 86 27 11 24.1 100.69     LegendNANA
05:00 Legend Double Dagger 1.9 -0.2 86 26 10 24.1 100.74     Mostly Cloudy
06:00 Legend Double Dagger 1.7 -0.1 88 27 8 24.1 100.78     LegendNANA
07:00 Legend Double Dagger 1.1 -0.5 89 25 9 24.1 100.83     LegendNANA
08:00 Legend Double Dagger 3.1 0.7 84 25 11 24.1 100.93     Mainly Clear
09:00 Legend Double Dagger 5.1 1.2 76 26 18 24.1 100.96     LegendNANA
10:00 Legend Double Dagger 6.7 1.8 71 25 12 24.1 100.96     LegendNANA
11:00 Legend Double Dagger 5.8 0.8 70 26 16 24.1 100.97     Mostly Cloudy
12:00 Legend Double Dagger 7.4 1.3 65 25 15 24.1 100.96     LegendNANA
13:00 Legend Double Dagger 7.7 0.0 58 24 17 24.1 100.94     LegendNANA
14:00 Legend Double Dagger 7.6 -0.6 56 25 13 24.1 100.91     Mostly Cloudy
15:00 Legend Double Dagger 7.4 -0.5 57 26 18 24.1 100.93     LegendNANA
16:00 Legend Double Dagger 6.7 -1.2 57 25 15 24.1 100.94     LegendNANA
17:00 Legend Double Dagger 6.5 -1.4 57 23 15 24.1 100.97     Mostly Cloudy
18:00 Legend Double Dagger 5.7 -1.7 59 23 16 24.1 100.98     LegendNANA
19:00 Legend Double Dagger 5.3 -1.4 62 23 15 24.1 101.00     LegendNANA
20:00 Legend Double Dagger 5.3 -0.3 67 23 14 24.1 101.00     Cloudy
21:00 Legend Double Dagger 5.3 0.1 69 23 11 24.1 101.01     LegendNANA
22:00 Legend Double Dagger 6.4 0.9 68 20 15 24.1 101.00     Rain
23:00 Legend Double Dagger 5.4 2.9 84 18 16 24.1 100.94     Rain

Notes on Data Quality.

Legend

  • E = Estimated
  • M = Missing
  • NA = Not Available
  • ‡ = Partner data that is not subject to review by the National Climate Archives
Date modified: